Location: Newark
(49.7697°N, 2.7094°E)
Time: 03:14:54
(UTC+00:00)

O/OREOS (USA 219) - Visible Passes

Search period start: 02 April 2020 00:00
Search period end: 12 April 2020 00:00
Orbit: 621 x 646 km, 72.0° (Epoch: 22 May)

Date Brightness Start Highest point End Pass type
(mag) Time Alt. Az. Time Alt. Az. Time Alt. Az.
02 Apr ? 21:43:31 26° NNE 21:43:31 26° NNE 21:45:29 10° NNE visible
02 Apr ? 23:20:54 17° NW 23:21:02 17° NW 23:24:02 10° N visible
03 Apr ? 04:25:30 10° NNE 04:26:45 11° NE 04:28:00 10° NE visible
03 Apr ? 20:26:46 13° ENE 20:26:46 13° ENE 20:27:31 10° NE visible
03 Apr ? 22:04:08 40° NNW 22:04:08 40° NNW 22:07:29 10° NNE visible
03 Apr ? 23:42:37 10° NW 23:43:41 11° NW 23:44:45 10° NNW visible
04 Apr ? 04:46:19 10° N 04:49:24 18° NE 04:52:28 10° E visible
04 Apr ? 20:47:05 36° ENE 20:47:05 36° ENE 20:50:06 10° NE visible
04 Apr ? 22:24:25 24° WNW 22:25:25 27° NW 22:29:15 10° N visible
05 Apr ? 19:29:30 12° E 19:29:30 12° E 19:30:58 10° ENE visible
05 Apr ? 21:06:47 54° SSW 21:07:47 86° WNW 21:12:18 10° NNE visible
05 Apr ? 22:45:06 10° W 22:47:55 16° NW 22:50:44 10° N visible
06 Apr ? 03:52:00 10° NNE 03:53:39 12° NE 03:55:19 10° ENE visible
06 Apr ? 19:47:29 12° SSE 19:50:46 25° ESE 19:54:26 10° NE visible
06 Apr ? 21:25:40 10° SW 21:29:57 44° NW 21:34:16 10° NNE visible
06 Apr ? 23:10:27 10° NW 23:10:35 10° NNW 23:10:43 10° NNW visible
07 Apr ? 04:13:01 10° N 04:16:16 19° NE 04:19:31 10° E visible
07 Apr ? 20:08:16 10° S 20:12:36 51° ESE 20:16:57 10° NE visible
07 Apr ? 21:48:35 10° WSW 21:52:16 25° NW 21:56:00 10° N visible
08 Apr ? 04:34:37 10° NNW 04:38:42 32° NE 04:42:47 10° ESE visible
08 Apr ? 20:30:08 10° SSW 20:34:36 79° WNW 20:39:07 10° NNE visible
08 Apr ? 22:12:10 10° WNW 22:14:48 15° NW 22:17:25 10° N visible
09 Apr ? 03:18:34 10° NNE 03:20:33 13° NE 03:22:32 10° ENE visible
09 Apr ? 19:13:44 10° SSE 19:17:31 28° ESE 19:21:20 10° NE visible
09 Apr ? 20:52:33 10° SW 20:56:46 40° NW 21:01:02 10° NNE visible
10 Apr ? 03:39:45 10° N 03:43:08 20° NE 03:46:32 10° E visible
10 Apr ? 19:35:01 10° S 19:39:23 57° ESE 19:43:47 10° NE visible
10 Apr ? 21:15:33 10° W 21:19:08 23° NW 21:22:45 10° N visible
11 Apr ? 04:01:23 10° NNW 04:05:33 34° NE 04:09:43 10° ESE visible
11 Apr ? 19:56:57 10° SSW 20:01:24 72° WNW 20:05:54 10° NNE visible
11 Apr ? 21:39:15 10° WNW 21:41:41 14° NW 21:44:06 10° N visible
